• In Russia
  • List of Countries
  • For 7 days
  • Water Temperature
  • Weather Map
  • Weather Widgets
  • user-avatar
    Login

    Hourly Weather Darwin

    Today, 27 February, Thursday

    Time Temperature Precipitation Wind Pressure Humidity
    00:00 +31°C° 1 mm 9 mps 753 mmHg 88%
    01:00 +29°C° 1.8 mm 9 mps 752 mmHg 89%
    02:00 +29°C° 1.8 mm 9 mps 752 mmHg 90%
    03:00 +29°C° 0 mm 10 mps 752 mmHg 89%
    04:00 +29°C° 3.3 mm 9 mps 752 mmHg 90%
    05:00 +29°C° 3.3 mm 9 mps 752 mmHg 91%
    06:00 +29°C° 3.3 mm 8 mps 752 mmHg 91%
    07:00 +29°C° 2.7 mm 8 mps 753 mmHg 91%
    08:00 +29°C° 2.7 mm 8 mps 753 mmHg 90%
    09:00 +29°C° 0 mm 4 mps 753 mmHg 91%
    10:00 +29°C° 2.6 mm 5 mps 753 mmHg 89%
    11:00 +30°C° 2.6 mm 6 mps 753 mmHg 88%
    12:00 +30°C° 2.6 mm 7 mps 753 mmHg 86%
    13:00 +32°C° 1.8 mm 7 mps 752 mmHg 85%
    14:00 +32°C° 1.8 mm 8 mps 752 mmHg 84%
    15:00 +32°C° 0 mm 8 mps 751 mmHg 84%
    16:00 +31°C° 1.3 mm 8 mps 751 mmHg 85%
    17:00 +30°C° 1.3 mm 7 mps 752 mmHg 87%
    18:00 +29°C° 1.3 mm 7 mps 752 mmHg 88%
    19:00 +29°C° 0.9 mm 6 mps 752 mmHg 89%
    20:00 +29°C° 0.9 mm 6 mps 753 mmHg 90%
    21:00 +28°C° 0.9 mm 5 mps 753 mmHg 91%
    22:00 +28°C° 0.6 mm 5 mps 753 mmHg 92%
    23:00 +28°C° 0.6 mm 4 mps 753 mmHg 92%

    Tomorrow, 28 February, Friday

    Time Temperature Precipitation Wind Pressure Humidity
    00:00 +28°C° 0.6 mm 4 mps 753 mmHg 92%
    01:00 +28°C° 1.3 mm 4 mps 753 mmHg 92%
    02:00 +28°C° 1.3 mm 4 mps 752 mmHg 93%
    03:00 +28°C° 1.3 mm 4 mps 752 mmHg 94%
    04:00 +28°C° 3.5 mm 4 mps 752 mmHg 93%
    05:00 +28°C° 3.5 mm 5 mps 753 mmHg 92%
    06:00 +28°C° 3.5 mm 5 mps 753 mmHg 91%
    07:00 +28°C° 3.2 mm 5 mps 753 mmHg 90%
    08:00 +29°C° 3.2 mm 5 mps 754 mmHg 89%
    09:00 +29°C° 3.2 mm 5 mps 754 mmHg 89%
    10:00 +30°C° 1.8 mm 5 mps 754 mmHg 87%
    11:00 +32°C° 1.8 mm 5 mps 754 mmHg 85%
    12:00 +33°C° 1.8 mm 5 mps 754 mmHg 83%
    13:00 +33°C° 1.1 mm 5 mps 753 mmHg 82%
    14:00 +33°C° 1.1 mm 5 mps 752 mmHg 81%
    15:00 +33°C° 1.1 mm 5 mps 752 mmHg 80%
    16:00 +32°C° 1.6 mm 5 mps 752 mmHg 83%
    17:00 +32°C° 1.6 mm 4 mps 752 mmHg 85%
    18:00 +30°C° 1.6 mm 4 mps 752 mmHg 87%
    19:00 +29°C° 0.6 mm 4 mps 753 mmHg 88%
    20:00 +29°C° 0.6 mm 4 mps 754 mmHg 89%
    21:00 +29°C° 0.6 mm 4 mps 754 mmHg 91%
    22:00 +29°C° 0.5 mm 4 mps 754 mmHg 91%
    23:00 +28°C° 0.5 mm 3 mps 754 mmHg 92%

    Day after tomorrow, 29 February, Saturday

    Time Temperature Precipitation Wind Pressure Humidity
    00:00 +28°C° 0.5 mm 3 mps 754 mmHg 93%
    01:00 +28°C° 2.1 mm 4 mps 754 mmHg 92%
    02:00 +28°C° 2.1 mm 4 mps 754 mmHg 91%
    03:00 +28°C° 2.1 mm 4 mps 753 mmHg 90%
    04:00 +28°C° 1.5 mm 4 mps 754 mmHg 91%
    05:00 +27°C° 1.5 mm 3 mps 754 mmHg 91%
    06:00 +27°C° 1.5 mm 3 mps 754 mmHg 92%
    07:00 +28°C° 0.3 mm 3 mps 754 mmHg 88%
    08:00 +30°C° 0.3 mm 3 mps 755 mmHg 85%
    09:00 +31°C° 0.3 mm 3 mps 755 mmHg 81%
    10:00 +33°C° 0.4 mm 3 mps 755 mmHg 77%
    11:00 +34°C° 0.4 mm 3 mps 755 mmHg 73%
    12:00 +35°C° 0.4 mm 3 mps 755 mmHg 69%
    13:00 +35°C° 0.3 mm 2 mps 754 mmHg 67%
    14:00 +35°C° 0.3 mm 2 mps 754 mmHg 66%
    15:00 +35°C° 0.3 mm 2 mps 753 mmHg 64%
    16:00 +33°C° 1.2 mm 1 mps 753 mmHg 69%
    17:00 +32°C° 1.2 mm 1 mps 753 mmHg 75%
    18:00 +31°C° 1.2 mm 1 mps 753 mmHg 80%
    19:00 +30°C° 1.2 mm 1 mps 754 mmHg 84%
    20:00 +29°C° 1.2 mm 2 mps 755 mmHg 88%
    21:00 +28°C° 1.2 mm 2 mps 755 mmHg 92%
    22:00 +27°C° 1 mm 2 mps 755 mmHg 92%
    23:00 +27°C° 1 mm 3 mps 755 mmHg 93%

    1 March, Sunday

    Time Temperature Precipitation Wind Pressure Humidity
    00:00 +27°C° 1 mm 3 mps 755 mmHg 93%
    01:00 +27°C° 0.1 mm 3 mps 755 mmHg 94%
    02:00 +27°C° 0.1 mm 3 mps 755 mmHg 95%
    03:00 +26°C° 0.1 mm 3 mps 754 mmHg 96%
    04:00 +26°C° 0 mm 3 mps 754 mmHg 96%
    05:00 +26°C° 0 mm 4 mps 755 mmHg 96%
    06:00 +26°C° 0 mm 4 mps 755 mmHg 96%
    07:00 +27°C° 0 mm 4 mps 755 mmHg 92%
    08:00 +29°C° 0 mm 3 mps 756 mmHg 88%
    09:00 +30°C° 0 mm 3 mps 756 mmHg 85%
    10:00 +31°C° 0 mm 3 mps 756 mmHg 78%
    11:00 +34°C° 0 mm 3 mps 755 mmHg 71%
    12:00 +35°C° 0 mm 3 mps 755 mmHg 64%
    13:00 +35°C° 0.1 mm 3 mps 754 mmHg 64%
    14:00 +35°C° 0.1 mm 3 mps 754 mmHg 64%
    15:00 +35°C° 0.1 mm 2 mps 753 mmHg 63%
    16:00 +34°C° 0.5 mm 2 mps 753 mmHg 69%
    17:00 +32°C° 0.5 mm 2 mps 753 mmHg 74%
    18:00 +31°C° 0.5 mm 2 mps 753 mmHg 80%
    19:00 +31°C° 0.1 mm 2 mps 754 mmHg 83%
    20:00 +30°C° 0.1 mm 2 mps 754 mmHg 86%
    21:00 +29°C° 0.1 mm 2 mps 755 mmHg 89%
    22:00 +29°C° 0.6 mm 2 mps 755 mmHg 89%
    23:00 +28°C° 0.6 mm 2 mps 755 mmHg 90%

    2 March, Monday

    Time Temperature Precipitation Wind Pressure Humidity
    00:00 +28°C° 0.6 mm 2 mps 755 mmHg 91%
    01:00 +28°C° 0.7 mm 3 mps 754 mmHg 92%
    02:00 +28°C° 0.7 mm 3 mps 754 mmHg 92%
    03:00 +28°C° 0.7 mm 3 mps 754 mmHg 92%
    04:00 +28°C° 0.1 mm 3 mps 754 mmHg 92%
    05:00 +28°C° 0.1 mm 3 mps 754 mmHg 93%
    06:00 +28°C° 0.1 mm 2 mps 754 mmHg 93%
    07:00 +29°C° 0.3 mm 2 mps 754 mmHg 89%
    08:00 +30°C° 0.3 mm 3 mps 755 mmHg 84%
    09:00 +33°C° 0.3 mm 3 mps 755 mmHg 80%
    10:00 +33°C° 0.2 mm 3 mps 755 mmHg 75%
    11:00 +34°C° 0.2 mm 3 mps 755 mmHg 71%
    12:00 +35°C° 0.2 mm 3 mps 754 mmHg 67%
    13:00 +35°C° 0.2 mm 2 mps 754 mmHg 65%
    14:00 +35°C° 0.2 mm 2 mps 753 mmHg 63%
    15:00 +35°C° 0.2 mm 2 mps 753 mmHg 61%
    16:00 +34°C° 0 mm 2 mps 753 mmHg 65%
    17:00 +34°C° 0 mm 2 mps 753 mmHg 70%
    18:00 +32°C° 0 mm 2 mps 753 mmHg 74%
    19:00 +31°C° 0.1 mm 2 mps 754 mmHg 76%
    20:00 +30°C° 0.1 mm 2 mps 754 mmHg 78%
    21:00 +30°C° 0.1 mm 2 mps 755 mmHg 80%
    22:00 +29°C° 2.1 mm 3 mps 755 mmHg 83%
    23:00 +29°C° 2.1 mm 4 mps 755 mmHg 87%

    3 March, Tuesday

    Time Temperature Precipitation Wind Pressure Humidity
    00:00 +28°C° 2.1 mm 4 mps 755 mmHg 91%
    01:00 +28°C° 1.1 mm 4 mps 754 mmHg 90%
    02:00 +28°C° 1.1 mm 4 mps 754 mmHg 90%
    03:00 +28°C° 1.1 mm 3 mps 754 mmHg 90%
    04:00 +28°C° 0.7 mm 3 mps 754 mmHg 89%
    05:00 +28°C° 0.7 mm 3 mps 754 mmHg 88%
    06:00 +28°C° 0.7 mm 3 mps 754 mmHg 87%
    07:00 +29°C° 0.9 mm 3 mps 754 mmHg 84%
    08:00 +31°C° 0.9 mm 3 mps 755 mmHg 81%
    09:00 +33°C° 0.9 mm 3 mps 755 mmHg 77%
    10:00 +33°C° 1.3 mm 3 mps 755 mmHg 77%
    11:00 +33°C° 1.3 mm 3 mps 754 mmHg 76%
    12:00 +34°C° 1.3 mm 4 mps 754 mmHg 75%
    13:00 +33°C° 1.9 mm 4 mps 754 mmHg 77%
    14:00 +33°C° 1.9 mm 4 mps 753 mmHg 79%
    15:00 +32°C° 1.9 mm 4 mps 753 mmHg 80%
    16:00 +31°C° 2.1 mm 3 mps 753 mmHg 83%
    17:00 +30°C° 2.1 mm 2 mps 753 mmHg 85%
    18:00 +30°C° 2.1 mm 2 mps 753 mmHg 87%
    19:00 +29°C° 0.4 mm 1 mps 754 mmHg 89%
    20:00 +28°C° 0.4 mm 1 mps 754 mmHg 91%
    21:00 +28°C° 0.4 mm 1 mps 755 mmHg 92%
    22:00 +28°C° 0.8 mm 1 mps 755 mmHg 93%
    23:00 +27°C° 0.8 mm 1 mps 755 mmHg 94%
    Show more